When you browse on this site, cookies collect data to enhance your experience and personalize the content and advertising you see.
Visit our Privacy Policy to learn more. By continuing to use the site, you agree to this use of cookies and data.
  • In Spain
  • List of Countries
  • For 7 days
  • Water Temperature
  • Weather Map
  • Weather Widgets
  • user-avatar
    Login

    Hourly Weather Frankfurt am Mein

    Today, 1 June, Monday

    Time Temperature Precipitation Wind Pressure Humidity
    00:00 +11°C° 0 mm 1 mps 726 mmHg 81%
    01:00 +10°C° 0 mm 1 mps 726 mmHg 84%
    02:00 +10°C° 0 mm 1 mps 725 mmHg 86%
    03:00 +10°C° 0 mm 1 mps 725 mmHg 88%
    04:00 +10°C° 0 mm 1 mps 725 mmHg 90%
    05:00 +11°C° 0 mm 1 mps 725 mmHg 86%
    06:00 +12°C° 0 mm 1 mps 726 mmHg 82%
    07:00 +14°C° 0 mm 2 mps 726 mmHg 79%
    08:00 +16°C° 0 mm 2 mps 726 mmHg 71%
    09:00 +17°C° 0 mm 2 mps 726 mmHg 63%
    10:00 +19°C° 0 mm 2 mps 726 mmHg 54%
    11:00 +20°C° 0 mm 3 mps 726 mmHg 51%
    12:00 +21°C° 0 mm 3 mps 726 mmHg 48%
    13:00 +22°C° 0 mm 3 mps 726 mmHg 45%
    14:00 +22°C° 0 mm 3 mps 726 mmHg 45%
    15:00 +24°C° 0 mm 3 mps 726 mmHg 44%
    16:00 +24°C° 0 mm 3 mps 726 mmHg 44%
    17:00 +22°C° 0 mm 3 mps 725 mmHg 50%
    18:00 +21°C° 0 mm 3 mps 725 mmHg 55%
    19:00 +20°C° 0 mm 3 mps 725 mmHg 60%
    20:00 +18°C° 0 mm 3 mps 725 mmHg 66%
    21:00 +16°C° 0 mm 3 mps 725 mmHg 72%
    22:00 +14°C° 0 mm 2 mps 725 mmHg 77%
    23:00 +13°C° 0 mm 2 mps 725 mmHg 81%

    Tomorrow, 2 June, Tuesday

    Time Temperature Precipitation Wind Pressure Humidity
    00:00 +13°C° 0 mm 2 mps 725 mmHg 84%
    01:00 +12°C° 0 mm 1 mps 725 mmHg 87%
    02:00 +11°C° 0 mm 1 mps 725 mmHg 88%
    03:00 +11°C° 0 mm 1 mps 724 mmHg 88%
    04:00 +10°C° 0 mm 1 mps 724 mmHg 89%
    05:00 +12°C° 0 mm 1 mps 724 mmHg 84%
    06:00 +13°C° 0 mm 1 mps 725 mmHg 79%
    07:00 +14°C° 0 mm 1 mps 725 mmHg 74%
    08:00 +16°C° 0 mm 1 mps 725 mmHg 67%
    09:00 +18°C° 0 mm 2 mps 725 mmHg 60%
    10:00 +20°C° 0 mm 2 mps 725 mmHg 53%
    11:00 +21°C° 0 mm 2 mps 725 mmHg 49%
    12:00 +23°C° 0 mm 2 mps 724 mmHg 45%
    13:00 +24°C° 0 mm 2 mps 724 mmHg 41%
    14:00 +24°C° 0 mm 2 mps 723 mmHg 41%
    15:00 +24°C° 0 mm 2 mps 723 mmHg 41%
    16:00 +24°C° 0 mm 1 mps 722 mmHg 41%
    17:00 +23°C° 0 mm 1 mps 722 mmHg 48%
    18:00 +21°C° 0 mm 2 mps 721 mmHg 54%
    19:00 +20°C° 0 mm 2 mps 721 mmHg 60%
    20:00 +20°C° 0 mm 1 mps 720 mmHg 65%
    21:00 +18°C° 0 mm 1 mps 720 mmHg 70%
    22:00 +15°C° 0 mm 1 mps 720 mmHg 75%
    23:00 +15°C° 0 mm 1 mps 720 mmHg 76%

    Day after tomorrow, 3 June, Wednesday

    Time Temperature Precipitation Wind Pressure Humidity
    00:00 +14°C° 0 mm 1 mps 719 mmHg 77%
    01:00 +14°C° 0 mm 1 mps 719 mmHg 78%
    02:00 +13°C° 0 mm 1 mps 718 mmHg 80%
    03:00 +12°C° 0 mm 1 mps 718 mmHg 81%
    04:00 +12°C° 0 mm 1 mps 717 mmHg 82%
    05:00 +13°C° 0 mm 1 mps 717 mmHg 78%
    06:00 +14°C° 0 mm 1 mps 717 mmHg 74%
    07:00 +15°C° 0 mm 1 mps 717 mmHg 70%
    08:00 +18°C° 0 mm 1 mps 717 mmHg 64%
    09:00 +20°C° 0 mm 1 mps 717 mmHg 58%
    10:00 +22°C° 0 mm 1 mps 717 mmHg 52%
    11:00 +23°C° 0.2 mm 2 mps 716 mmHg 50%
    12:00 +23°C° 0.2 mm 2 mps 716 mmHg 48%
    13:00 +24°C° 0.2 mm 2 mps 715 mmHg 46%
    14:00 +24°C° 0.1 mm 2 mps 715 mmHg 45%
    15:00 +24°C° 0.1 mm 2 mps 714 mmHg 44%
    16:00 +25°C° 0.1 mm 2 mps 713 mmHg 43%
    17:00 +23°C° 0.1 mm 1 mps 713 mmHg 51%
    18:00 +22°C° 0.1 mm 1 mps 712 mmHg 60%
    19:00 +21°C° 0.1 mm 1 mps 712 mmHg 68%
    20:00 +19°C° 0.2 mm 1 mps 712 mmHg 71%
    21:00 +18°C° 0.2 mm 1 mps 711 mmHg 75%
    22:00 +16°C° 0.2 mm 1 mps 711 mmHg 78%
    23:00 +15°C° 0.8 mm 1 mps 711 mmHg 81%

    4 June, Thursday

    Time Temperature Precipitation Wind Pressure Humidity
    00:00 +15°C° 0.8 mm 1 mps 710 mmHg 83%
    01:00 +15°C° 0.8 mm 1 mps 710 mmHg 86%
    02:00 +14°C° 1.4 mm 1 mps 709 mmHg 89%
    03:00 +14°C° 1.4 mm 1 mps 709 mmHg 91%
    04:00 +14°C° 1.4 mm 1 mps 709 mmHg 94%
    05:00 +14°C° 1.2 mm 2 mps 708 mmHg 93%
    06:00 +14°C° 1.2 mm 2 mps 708 mmHg 93%
    07:00 +12°C° 1.2 mm 3 mps 707 mmHg 92%
    08:00 +13°C° 0.1 mm 3 mps 707 mmHg 86%
    09:00 +14°C° 0.1 mm 3 mps 707 mmHg 81%
    10:00 +16°C° 0.1 mm 3 mps 708 mmHg 75%
    11:00 +17°C° 0 mm 3 mps 708 mmHg 67%
    12:00 +18°C° 0 mm 3 mps 707 mmHg 60%
    13:00 +19°C° 0 mm 3 mps 707 mmHg 52%
    14:00 +18°C° 0.1 mm 4 mps 707 mmHg 59%
    15:00 +15°C° 0.1 mm 4 mps 707 mmHg 66%
    16:00 +14°C° 0.1 mm 5 mps 707 mmHg 73%
    17:00 +13°C° 0 mm 4 mps 707 mmHg 74%
    18:00 +12°C° 0 mm 4 mps 708 mmHg 75%
    19:00 +11°C° 0 mm 4 mps 708 mmHg 76%
    20:00 +11°C° 0 mm 3 mps 708 mmHg 79%
    21:00 +10°C° 0 mm 3 mps 708 mmHg 81%
    22:00 +9°C° 0 mm 3 mps 709 mmHg 83%
    23:00 +8°C° 0 mm 3 mps 709 mmHg 84%

    5 June, Friday

    Time Temperature Precipitation Wind Pressure Humidity
    00:00 +8°C° 0 mm 3 mps 709 mmHg 85%
    01:00 +7°C° 0 mm 2 mps 709 mmHg 86%
    02:00 +6°C° 0 mm 2 mps 709 mmHg 88%
    03:00 +6°C° 0 mm 2 mps 709 mmHg 89%
    04:00 +5°C° 0 mm 2 mps 710 mmHg 91%
    05:00 +6°C° 0 mm 2 mps 710 mmHg 85%
    06:00 +7°C° 0 mm 3 mps 710 mmHg 79%
    07:00 +8°C° 0 mm 3 mps 711 mmHg 72%
    08:00 +9°C° 0 mm 3 mps 711 mmHg 65%
    09:00 +10°C° 0 mm 3 mps 711 mmHg 57%
    10:00 +12°C° 0 mm 4 mps 711 mmHg 49%
    11:00 +12°C° 0.1 mm 4 mps 711 mmHg 49%
    12:00 +13°C° 0.1 mm 4 mps 711 mmHg 50%
    13:00 +14°C° 0.1 mm 5 mps 711 mmHg 51%
    14:00 +14°C° 0.2 mm 4 mps 711 mmHg 50%
    15:00 +14°C° 0.2 mm 4 mps 711 mmHg 50%
    16:00 +14°C° 0.2 mm 4 mps 712 mmHg 50%
    17:00 +14°C° 0.1 mm 4 mps 712 mmHg 55%
    18:00 +13°C° 0.1 mm 3 mps 712 mmHg 60%
    19:00 +13°C° 0.1 mm 3 mps 712 mmHg 65%
    20:00 +11°C° 0 mm 3 mps 712 mmHg 70%
    21:00 +10°C° 0 mm 2 mps 713 mmHg 76%
    22:00 +8°C° 0 mm 2 mps 713 mmHg 82%
    23:00 +8°C° 0.1 mm 3 mps 713 mmHg 83%

    6 June, Saturday

    Time Temperature Precipitation Wind Pressure Humidity
    00:00 +9°C° 0.1 mm 3 mps 713 mmHg 84%
    01:00 +9°C° 0.1 mm 3 mps 713 mmHg 85%
    02:00 +9°C° 0.2 mm 3 mps 712 mmHg 86%
    03:00 +8°C° 0.2 mm 4 mps 712 mmHg 87%
    04:00 +8°C° 0.2 mm 4 mps 712 mmHg 88%
    05:00 +8°C° 0 mm 4 mps 712 mmHg 87%
    06:00 +9°C° 0 mm 5 mps 712 mmHg 86%
    07:00 +9°C° 0 mm 5 mps 712 mmHg 85%
    08:00 +10°C° 0.1 mm 5 mps 713 mmHg 80%
    09:00 +11°C° 0.1 mm 6 mps 713 mmHg 75%
    10:00 +13°C° 0.1 mm 6 mps 713 mmHg 70%
    11:00 +14°C° 0.2 mm 6 mps 713 mmHg 68%
    12:00 +14°C° 0.2 mm 6 mps 713 mmHg 65%
    13:00 +15°C° 0.2 mm 7 mps 714 mmHg 63%
    14:00 +15°C° 0.2 mm 6 mps 714 mmHg 62%
    15:00 +15°C° 0.2 mm 6 mps 714 mmHg 62%
    16:00 +16°C° 0.2 mm 6 mps 714 mmHg 61%
    17:00 +15°C° 0.3 mm 5 mps 714 mmHg 68%
    18:00 +14°C° 0.3 mm 5 mps 714 mmHg 75%
    19:00 +13°C° 0.3 mm 4 mps 713 mmHg 81%
    20:00 +12°C° 0.6 mm 4 mps 714 mmHg 84%
    21:00 +11°C° 0.6 mm 3 mps 714 mmHg 87%
    22:00 +10°C° 0.6 mm 3 mps 714 mmHg 90%
    23:00 +10°C° 0.9 mm 3 mps 714 mmHg 91%
    Show more